Home > Weather > Khan Yunis > Past weeks

Flag for Palestinian Territories Weather for the Past 2 Weeks in Khan Yunis, Gaza Strip, Palestinian Territories

Now
57 °F

Partly sunny.


Feels Like: 54 °F
Forecast: 51 / 58 °F
Wind: 14 mph from West

Location: El Arish

Current Time: Feb 7, 2016 at 5:40:42 PM

Latest Report: Feb 7, 2016 at 4:00 PM


Visibility: N/A

Pressure: 30.07 "Hg

Humidity: 55%

Dew point: 41 °F

Location of Khan YunisLocation

Historic Weather in Khan Yunis — Graph

°F

Khan Yunis Temperature Yesterday

Maximum temperature yesterday: 66 °F (at 12:00 PM)
Minimum temperature yesterday: 48 °F (at 2:00 AM)
Average temperature yesterday: 56 °F

High & Low Weather Summary for the Past Weeks

 TemperatureHumidityPressure
High79 °F (Feb 4, 3:00 PM)100% (Jan 23, 8:00 PM)30.45 "Hg (Jan 23, 8:00 PM)
Low36 °F (Jan 28, 6:00 AM)21% (Feb 4, 3:00 PM)29.95 "Hg (Feb 5, 6:00 AM)
Average53 °F84%30.19 "Hg
* Reported Jan 23 4:00 PM — Feb 7 4:00 PM, Khan Yunis, Weather by CustomWeather, © 2016

Note: Actual official high and low records may vary slightly from our data, if they occured in-between our weather recording intervals... More about our weather records

Advertising

Khan Yunis Weather History for the Previous 24 Hours

 ConditionsComfort  
Time TempWeatherWind HumidityBarometerVisibility
4:00 PM
Sun, Feb 7
57 °FPartly sunny.14 mph55%30.07 "HgN/A
3:00 PM57 °FPartly sunny.17 mph51%30.07 "HgN/A
2:00 PM59 °FPartly sunny.16 mph48%30.07 "HgN/A
1:00 PM59 °FPartly sunny.17 mph48%30.07 "HgN/A
12:00 PM61 °FPartly sunny.13 mph48%30.07 "HgN/A
11:00 AM57 °FPartly sunny.17 mph51%30.09 "HgN/A
10:00 AM55 °FPartly sunny.16 mph59%30.09 "HgN/A
9:00 AM54 °FPartly sunny.16 mph63%30.07 "HgN/A
8:00 AM52 °FScattered clouds.14 mph77%30.04 "HgN/A
7:00 AM48 °FScattered clouds.15 mph94%30.04 "HgN/A
6:00 AM50 °FClear.13 mph100%30.07 "Hg10 mi
5:00 AM50 °FClear.12 mph100%30.01 "Hg10 mi
2:00 AM50 °FClear.13 mph100%30.01 "Hg10 mi
1:00 AM50 °FClear.14 mph100%30.04 "Hg10 mi
12:00 AM50 °FClear.14 mph100%30.04 "Hg10 mi
10:00 PM
Sat, Feb 6
52 °FClear.9 mph94%30.04 "Hg10 mi
9:00 PM52 °FClear.10 mph94%30.04 "Hg10 mi
8:00 PM52 °FClear.10 mph88%30.04 "Hg10 mi
7:00 PM54 °FPassing clouds.10 mph82%30.04 "HgN/A
6:00 PM54 °FRain. Passing clouds.3 mph88%30.01 "Hg5 mi
5:00 PM55 °FBroken clouds.9 mph77%30.01 "HgN/A
Weather by CustomWeather, © 2016

See weather overviewHow to use our weather pages